Simultaneous Nadir Overpasses (SNOs) Predictions

Prediction of SNOs between METOP-B and TERRA Satellite Orbit:

Table of predicted SNOs for the next 14.0 days since TLE Epoch: 1/18/2025
Index Date (METOP-B) Time (METOP-B) Lat,Lon (METOP-B) SZA (METOP-B ) Date (TERRA) Time (TERRA) Lat,Lon (TERRA) SZA (TERRA ) Distance(km) Time Diff (sec)
1 01/20/2025 02:15:13 -78.99, -24.77 80.92 01/20/2025 02:16:20 -78.98, -24.79 80.92 0.53 67
2 01/20/2025 03:05:46 79.25, 144.37 99.38 01/20/2025 03:05:32 79.25, 144.46 99.38 2.03 14
3 01/22/2025 15:55:03 78.94, -50.09 98.44 01/22/2025 15:56:08 78.94, -50.02 98.45 1.61 65
4 01/22/2025 16:45:34 -79.33, 119.93 81.12 01/22/2025 16:45:20 -79.32, 119.87 81.13 1.52 14
5 01/25/2025 05:34:53 -78.94, -75.08 82.18 01/25/2025 05:35:57 -78.94, -75.02 82.18 1.39 64
6 01/25/2025 06:25:25 79.23, 94.26 98.15 01/25/2025 06:25:08 79.24, 94.40 98.16 3.17 17
7 01/27/2025 19:14:42 78.90,-100.31 97.12 01/27/2025 19:15:43 78.91,-100.20 97.13 2.46 61
8 01/27/2025 20:05:13 -79.29, 69.73 82.45 01/27/2025 20:04:55 -79.29, 69.72 82.45 0.26 18
9 01/30/2025 08:54:30 -78.92,-125.14 83.56 01/30/2025 08:55:29 -78.93,-125.05 83.54 2.19 59



Historial Predications of SNOs between METOP-B and TERRA
